Location: Newark
(60.6561°N, 46.5772°E)
Time: 08:01:55
(UTC+00:00)

Vanguard 2 Rocket - Pass Details

Date: 30 October 2019
Orbit: 554 x 3326 km, 32.9° (Epoch: 12 November)

Event Time Altitude Azimuth Distance (km) Brightness Sun altitude
Rises 02:44:27 0° 194° (SSW) 5,397 10.8 -11.0°
Reaches altitude 10° 02:50:02 10° 173° (S) 4,945 10.9 -10.3°
Maximum altitude 02:57:07 15° 144° (SE) 5,077 11.4 -9.5°
Drops below altitude 10° 03:05:27 10° 117° (ESE) 5,997 12.6 -8.5°
Sets 03:13:39 0° 99° (E) 7,276 14.0 -7.5°
